www.pogodaiklimat.ru

Погода и климат >> Архив погоды >> Россия >> Мурманская область >> Вайда-Губа


АРХИВ ПОГОДЫ в Вайда-Губе

Время (UTC), дата Ветер
(напр.,м/с)
 
Видим.   Явления Облачность Т
(С)
Тd
(С)
f
(%)
Тe
(С)
Тes
(С)
Комфортность P
(гПа)
Po
(гПа)
Тmin
(С)
Tmax
(С)
R
(мм)
R24
(мм)
S
(см)
18 10.07 С 3 50 км {ливн. осадки} 10/10 300 м
[Sc]
+5.7 +2.7 81 +2 +2 1018.0 1017.1 +7.4 0.4
21 10.07 СВ 3 50 км 10/10 300 м
[Sc]
+5.4 +2.6 82 +2 +2 1017.2 1016.2
00 11.07 С 3 50 км 10/10 300 м
[Sc]
+5.2 +2.9 85 +2 +2 1016.3 1015.3
03 11.07 СВ 3 50 км 10/10 300 м
[Sc]
+5.3 +2.7 83 +2 +2 1015.8 1014.8 +5.0
06 11.07 С 4 50 км 10/10 300 м
[Sc]
+6.7 +3.3 79 +3 +3 1015.1 1014.2 +5.0
09 11.07 С 5 50 км 9/9 300 м
[Sc]
+7.7 +3.3 74 +4 +5 1015.3 1014.4
12 11.07 СВ 5 50 км 9/9 300 м
[Sc]
+7.0 +3.6 79 +3 +4 1015.4 1014.4
15 11.07 С 5 50 км 9/9 300 м
[Sc]
+6.6 +3.9 83 +2 +3 1015.3 1014.4
18 11.07 С 6 50 км 9/9 300 м
[Sc]
+6.4 +3.9 84 +2 +2 1015.1 1014.2 +8.1
21 11.07 СВ 6 50 км 10/10 300 м
[Cb cap]
+6.4 +4.2 86 +2 +2 1014.7 1013.8
00 12.07 СВ 6 50 км 10/10 300 м
[Cb cap]
+5.2 +3.7 90 0 0 1014.3 1013.4
03 12.07 С 6 4000 м дымка 10/10 300 м
[Cb cap]
+5.3 +3.8 90 0 0 1014.2 1013.3 +5.0
06 12.07 С 7 4000 м дымка 10/10 300 м
[Cb cap]
+5.8 +3.8 87 +1 +1 1014.5 1013.5 +5.0
09 12.07 С 6-9
{10}
50 км 10/10 300 м
[Sc]
+6.6 +4.3 85 +2 +2 1014.7 1013.8
12 12.07 СВ 6 50 км 10/10 300 м
[Sc]
+6.3 +4.3 87 +2 +2 1014.9 1014.0
15 12.07 СВ 6 50 км 10/10 300 м
[Sc]
+6.2 +4.0 86 +1 +1 1015.3 1014.4
18 12.07 С 7 50 км 10/10 300 м
[Sc]
+5.7 +4.0 89 0 0 1015.1 1014.2 +6.8
21 12.07 С 6 20 км 10/10 300 м
[Cb cap]
+5.5 +4.1 91 0 0 1015.6 1014.6
00 13.07 С 7 10 км слаб. ливневой дождь 10/10 300 м
[Cb cap]
+5.8 +4.9 94 0 0 1015.3 1014.4
03 13.07 С 6 20 км в посл. час ливневой дождь 10/10 300 м
[Cb cap]
+6.6 +5.4 92 +2 +2 1015.3 1014.4 +5.5 0.3
06 13.07 С 6 4000 м дымка {ливн. осадки} 10/10 300 м
[Cb cap]
+6.8 +5.4 91 +2 +2 1015.6 1014.7 +5.5 0.3
09 13.07 С 6 50 км 10/10 300 м
[Sc]
+7.0 +4.8 86 +3 +3 1016.1 1015.2
12 13.07 С 6 4000 м дымка 10/10 300 м
[Cb cap]
+6.5 +5.3 92 +2 +2 1015.8 1014.9
15 13.07 С 5 4000 м дымка 10/10 300 м
[Cb cap]
+6.4 +4.9 90 +2 +2 1016.0 1015.1
18 13.07 С 5 4000 м дымка 10/10 200 м
[St]
+6.1 +4.4 89 +2 +2 1016.0 1015.1 +7.3
21 13.07 С 3 4000 м дымка 10/10 300 м
[Sc]
+6.1 +4.6 90 +3 +3 1015.6 1014.7
00 14.07 С 4 20 км 10/9 300 м
[Cb cap Ac und]
+6.7 +4.9 88 +3 +3 1015.5 1014.5
03 14.07 С 3 10 км слаб. ливневой дождь 10/10 300 м
[Cb cap]
+6.5 +5.3 92 +3 +3 1015.3 1014.4 +5.7 0.3
06 14.07 С 4 50 км {ливн. осадки} 9/8 300 м
[Cb cap Ac trans]
+7.1 +5.7 91 +3 +4 1015.2 1014.3 +5.7 0.7
09 14.07 СВ 3 50 км 10/3 300 м
[Sc Ac trans Ci ing]
+8.3 +5.7 84 +6 +8 1015.5 1014.6
12 14.07 СВ 2 50 км 10/3 300 м
[Sc Ac cast Cc]
+8.2 +5.0 80 +6 +9 1015.6 1014.7
15 14.07 С 2 50 км 9/8 300 м
[Sc Ac trans]
+7.7 +3.9 77 +6 +6 1015.7 1014.7 0.4
18 14.07 СЗ 2 50 км 9/8 300 м
[Cb cap Ac trans Ci fib]
+7.6 +5.2 85 +6 +6 1015.5 1014.6 +8.7
21 14.07 С 2 50 км 10/10 300 м
[Sc]
+7.2 +5.0 86 +5 +5 1015.4 1014.5
00 15.07 С 2 50 км 10/10 300 м
[Sc]
+6.8 +4.8 87 +5 +5 1015.2 1014.3 +6.6
03 15.07 С 2 50 км 9/8 300 м
[Sc Ac trans]
+7.5 +3.4 75 +6 +6 1015.3 1014.4 +6.6
06 15.07 СВ 1 50 км 9/9 300 м
[Cb cap]
+7.8 +3.8 76 +7 +8 1015.5 1014.5 +6.6
09 15.07 СВ 3 50 км 8/3 300 м
[Cb cap Ac trans Ci fib]
+8.3 +4.9 79 +6 +9 1015.6 1014.7
12 15.07 В 4 50 км 6/4 300 м
[Cb cap Ac trans Ci fib]
+8.6 +3.2 69 +6 +9 1015.9 1015.0
15 15.07 В 5 50 км 3/3 300 м
[Cb cap Ci fib]
+9.7 +4.1 68 +7 +8 1016.0 1015.0
18 15.07 В 7 50 км 3/1 300 м
[Sc Ci fib]
+8.0 +3.6 74 +4 +4 1016.5 1015.6 +9.9
21 15.07 В 3 50 км 5/3 300 м
[Cb cap Ci fib]
+6.7 +3.3 79 +4 +4 1017.1 1016.2
00 16.07 В 3 50 км 10/10 300 м
[Sc]
+6.9 +3.1 77 +4 +4 1017.4 1016.5
03 16.07 В 3 50 км 10/10 300 м
[Sc]
+7.2 +4.3 82 +4 +4 1017.8 1016.8 +6.7
06 16.07 СВ 5 4000 м дымка 10/10 300 м
[Sc]
+6.4 +5.2 92 +2 +2 1017.9 1017.0 +6.3
09 16.07 СВ 6 4000 м слаб. ливневой дождь 10/10 300 м
[Cb cap]
+6.6 +5.5 93 +2 +2 1018.4 1017.5
12 16.07 СВ 4 4000 м слаб. ливневой дождь 10/10 200 м
[Cb cap]
+7.1 +6.0 93 +3 +3 1017.9 1017.0
15 16.07 СВ 7 4000 м слаб. ливневой дождь 10/10 200 м
[Cb cap]
+7.1 +6.2 94 +2 +2 1017.7 1016.8 7
18 16.07 СВ 5-7
{10}
4000 м слаб. дождь 10/10 200 м
[Frnb Ns]
+7.0 +6.1 94 +3 +3 1017.4 1016.5 +7.2 10
21 16.07 СВ 4 4000 м слаб. дождь 10/10 200 м
[Frnb Ns]
+6.8 +5.9 94 +3 +3 1016.6 1015.7
00 17.07 С 4 10 км слаб. дождь 10/10 200 м
[Frnb Ns]
+6.9 +5.5 91 +3 +3 1015.7 1014.8
03 17.07 С 7 10 км слаб. дождь 10/10 200 м
[Frnb Ns]
+7.1 +6.2 94 +2 +2 1013.9 1013.0 +6.7 6
06 17.07 СЗ 8-10
{11}
10 км слаб. дождь 10/10 200 м
[Frnb Ns]
+7.3 +6.1 92 +2 +2 1012.0 1011.0 +6.7 5
09 17.07 СЗ 8-10
{11}
10 км слаб. дождь 10/10 200 м
[Frnb Ns]
+7.3 +6.2 93 +2 +2 1010.8 1009.9
12 17.07 СЗ 6-10
{11}
10 км слаб. дождь 10/10 200 м
[Frnb Ns]
+7.6 +6.0 90 +3 +3 1010.6 1009.7
15 17.07 З 5-8
{10}
10 км слаб. дождь 10/10 200 м
[Frnb Ns]
+8.4 +6.3 87 +5 +5 1011.1 1010.2 5

 

Местоположение метеостанции Вайда-Губа (Мурманская область, Россия): широта 69.93 долгота 31.98 высота над уровнем моря 8 м.

В архиве по умолчанию представлена погода в Вайда-Губе за последнюю неделю. Архивные данные за месяц целиком и за предыдущие месяцы, начиная с января 2011 года, Вы можете получить, выбрав интересующий диапазон дат из раскрывающегося списка и нажав кнопку "Ввод!".


*Определитесь, кто Вы:
робот инопланетянин человек

Внимание! Время в таблицах - всемирное. Для получения местного времени необходимо прибавить поправку, которая равна 3 ч.

Смотрите также архив погоды в соседних городах и на ближайших метеорологических станциях:

Погода в Порту Лиинахамари (Мурманская область, Россия) (41 км)
Погода в Цып-Наволоке (Мурманская область, Россия) (48 км)
Погода в Вардё аэропорту (Норвегия) (59 км)
Погода в Вардё (Норвегия) (59 км)
Погода в Ура-Губе (Мурманская область, Россия) (79 км)
Погода в Киркенес аэропорту (Норвегия) (83 км)
Погода в Вадсо аэропорту (Норвегия) (83 км)
Погода в Перевале (Мурманская область, Россия) (84 км)
Погода в Никеле (Мурманская область, Россия) (90 км)
Погода в Пасвике (Норвегия) (92 км)

Пояснения к столбцам:

Ветер - указаны скорость ветра в м/с - средняя за 10 мин, порывы в срок и между сроками (в фигурных скобках) и направление, откуда дует ветер: С - северный, СВ - северо-восточный, В - восточный, ЮВ - юго-восточный, Ю - южный, ЮЗ - юго-западный, З - западный, СЗ - северо-западный.
Видимость - горизонтальная дальность видимости в метрах или километрах. При видимости от 1 до 10 км при отсутствии осадков обычно наблюдается дымка, при ухудшении видимости до 1 км и менее - туман. В сухую погоду видимость может ухудшаться дымом, пылью или мглою.
Явления - указаны атмосферные явления, наблюдавшиеся в срок или в последний час перед сроком; фигурными скобками обозначены явления, наблюдавшиеся между сроками (за 1-3 часа до срока); квадратными скобками обозначены град или гололедные отложения с указанием их диаметра в мм.
Облачность - указаны через наклонную черту общая и нижняя облачность в баллах и высота нижней границы облаков в метрах; квадратными скобками обозначены формы облаков: Ci - перистые, Cs - перисто-слоистые, Cc - перисто-кучевые, Ac - высококучевые, As - высокослоистые, Sc - слоисто-кучевые, Ns - слоисто-дождевые, Cu - кучевые, Cb - кучево-дождевые. Подробнее классификацию облаков см. в Атласе облаков (PDF).
T - Температура воздуха - температура, измеренная на высоте 2 м над землей.
Td - Температура точки росы - температура, при понижении до которой содержащийся в воздухе водяной пар достигнет насыщения.
f - Относительная влажность воздуха - влажноcть воздуха, измеренная на высоте 2 м над землей.
Te - Эффективная температура - температура, которую ощущает одетый по сезону человек в тени. Характеристика душности погоды. При расчете учитывается влияние влажности воздуха и скорости ветра на теплоощущения человека.
Tes - Эффективная температура на солнце - температура, которую ощущает человек, с поправкой на солнечный нагрев. Характеристика знойности погоды. Зависит от высоты солнца над горизонтом, облачности и скорости ветра. Ночью, в пасмурную погоду, а также при ветре 12 м/с и более поправка равна нулю.
P - Атмосферное давление - приведенное к уровню моря атмосферное давление.
Po - Атмосферное давление - измеренное на уровне метеостанции атмосферное давление.
Tmin - Минимальная температура - минимум температуры воздуха на высоте 2 м над землей.
Tmax - Максимальная температура - максимум температуры воздуха на высоте 2 м над землей.
R - Количество осадков - Количество выпавших осадков за период времени, мм. При наведении курсора мыши на число - период времени, за который выпало указанное количество осадков.
R24 - Количество осадков - Количество выпавших осадков за 24 часа, мм.
S - Снежный покров - Высота снежного покрова, см. При наведении курсора мыши на число - состояние снежного покрова и степень покрытия местности в баллах.